星链-4204 (STARLINK-4204 )

导读

STARLINK-4204是美国太空探索技术公司SpaceX星链计划中的卫星,于2022年6月17日发射入轨,属于星链低轨互联网星座组网卫星,运行在近地轨道,主要承担为全球提供高速宽带互联网服务的任务,是星链大规模组网建设进程中的重要组成单元,服务覆盖偏远、网络基础设施薄弱区域,也具备民用与军事应用潜力。

Basic Information
目录编号:
52854
目录名称:
STARLINK-4204
国际标识:
2022-062AA
轨道中心:
EARTH
卫星名称:
星链-4204
卫星全名:
星链-4204 (STARLINK-4204 )
卫星状态:
在轨 (已飞行1461 天)
发射日期:
2022-06-17 UTC
国别 :
美国 (US)
星等 :
--
Orbit Information
数据来源 国际轨道数据 AOE轨道数据
星历时间 2026-06-17T09:25:51+0800
14小时前
查看轨道信息
2026-06-12T08:00:00+0800
5天前
查看轨道信息
半长轴 6917.911km 6917.885km
偏心率 0.0001094 0.0000512
轨道倾角 53.160° 53.158°
近地点辐角 86.746° 38.774°
升交点赤经 297.933° 320.680°
平近点角 273.366° 183.518°
近地点 539.017km 539.393km
远地点 540.531km 540.103km
周期 95.438分钟 95.438分钟
每日圈数 15.0883 15.088387
Detailed Information
固有亮度:
5
最大亮度:
2.5
卫星平台:
Starlink v1.5
覆盖范围:
全球
运营商:
太空探索技术公司
运营商所在国:
美国
制造商(研发单位):
太空探索技术公司
制造商所在国:
美国
使用方式:
暂无
Satellite Introduction
星链(Starlink)计划是由太空探索技术公司(SpaceX)提出的一个巨型低轨卫星互联网星座项目,计划在2019年至2024年间在太空搭建由约1.2万颗卫星组成的“星链”网络,其中1584颗将部署在地球上空550千米处的近地轨道,并从2020年开始工作。该卫星仍在工作。
2D Orbit Map
3D Orbit Map
Orbit Altitude Analysis Chart
Orbit Inclination Analysis Chart
Orbit Comprehensive Analysis Chart
View Comprehensive Chart